Hourly Data Report for September 21, 2017

All times are specified in Local Standard Time (LST). Add 1 hour to adjust for Daylight Saving Time where and when it is observed.

KAMLOOPS A
BRITISH COLUMBIA

50°42'09.000" N
120°26'55.000" W
345.30 m
1163781
71887
YKA

Download Data

Hourly Data (September 2017)
Hourly Data Report for September 21, 2017
Temp Definition
°C
Dew Point Temp Definition
°C
Rel Hum Definition
%
Wind Dir Definition
10's deg

Wind Spd Definition
km/h
Visibility Definition
km
Stn Press Definition
kPa
Hmdx Definition


Wind Chill Definition


Weather Definition


TIME
00:00 Legend Double Dagger 11.5 4.1 60 27 20 64.4 96.76     LegendNANA
01:00 Legend Double Dagger 11.4 3.2 57 27 28 64.4 96.83     Mostly Cloudy
02:00 Legend Double Dagger 10.8 3.3 60 28 32 64.4 96.88     LegendNANA
03:00 Legend Double Dagger 10.3 2.7 59 27 21 64.4 96.95     LegendNANA
04:00 Legend Double Dagger 10.1 2.8 60 28 21 64.4 97.02     Mainly Clear
05:00 Legend Double Dagger 9.9 2.6 60 27 23 64.4 97.06     LegendNANA
06:00 Legend Double Dagger 9.0 1.9 61 29 22 64.4 97.13     LegendNANA
07:00 Legend Double Dagger 10.2 2.3 58 28 25 64.4 97.18     Mostly Cloudy
08:00 Legend Double Dagger 12.5 3.2 53 28 30 64.4 97.20     LegendNANA
09:00 Legend Double Dagger 12.6 2.6 50 26 25 64.4 97.23     LegendNANA
10:00 Legend Double Dagger 14.4 2.9 46 28 27 64.4 97.24     Mainly Clear
11:00 Legend Double Dagger 15.6 1.9 39 28 28 64.4 97.21     LegendNANA
12:00 Legend Double Dagger 17.5 2.4 36 27 22 64.4 97.20     LegendNANA
13:00 Legend Double Dagger 17.2 1.0 33 35 14 64.4 97.17     Mostly Cloudy
14:00 Legend Double Dagger 16.9 1.2 34 8 10 64.4 97.21     LegendNANA
15:00 Legend Double Dagger 17.4 1.4 34 20 4 64.4 97.21     LegendNANA
16:00 Legend Double Dagger 17.5 2.0 35 32 15 64.4 97.26     Mostly Cloudy
17:00 Legend Double Dagger 16.9 1.6 35 29 22 64.4 97.28     LegendNANA
18:00 Legend Double Dagger 16.0 1.6 38 29 17 64.4 97.36     LegendNANA
19:00 Legend Double Dagger 14.8 2.6 44 29 8 64.4 97.41     Mostly Cloudy
20:00 Legend Double Dagger 14.3 2.8 46 23 6 64.4 97.42     LegendNANA
21:00 Legend Double Dagger 14.9 2.2 42 21 7 64.4 97.45     LegendNANA
22:00 Legend Double Dagger 13.5 2.3 46 23 12 64.4 97.48     Mostly Cloudy
23:00 Legend Double Dagger 14.6 0.2 37 30 21 64.4 97.51     LegendNANA

Notes on Data Quality.

Legend

  • E = Estimated
  • M = Missing
  • NA = Not Available
  • ‡ = Partner data that is not subject to review by the National Climate Archives
Date modified: